Meteo pe oră la Bolshoe Anankino

Astăzi, 8 Mai, Sâmbătă

Timp Temperatura Precipitaţii Vânt Presiune Umiditate
00:00 +5°C° 0.7 mm 3 m/s 732 mmHg 90%
01:00 +5°C° 0.7 mm 4 m/s 732 mmHg 92%
02:00 +5°C° 0.7 mm 4 m/s 732 mmHg 94%
03:00 +5°C° 0.4 mm 4 m/s 731 mmHg 94%
04:00 +5°C° 0.4 mm 4 m/s 731 mmHg 95%
05:00 +5°C° 0.4 mm 3 m/s 730 mmHg 96%
06:00 +7°C° 0.1 mm 3 m/s 730 mmHg 94%
07:00 +7°C° 0.1 mm 3 m/s 731 mmHg 91%
08:00 +8°C° 0.1 mm 3 m/s 731 mmHg 89%
09:00 +7°C° 0.1 mm 3 m/s 731 mmHg 89%
10:00 +5°C° 0.1 mm 4 m/s 731 mmHg 89%
11:00 +5°C° 0.1 mm 4 m/s 732 mmHg 90%
12:00 +6°C° 0 mm 4 m/s 732 mmHg 84%
13:00 +6°C° 0 mm 4 m/s 732 mmHg 77%
14:00 +7°C° 0 mm 4 m/s 732 mmHg 71%
15:00 +7°C° 0.1 mm 4 m/s 732 mmHg 71%
16:00 +7°C° 0.1 mm 4 m/s 733 mmHg 71%
17:00 +6°C° 0.1 mm 4 m/s 733 mmHg 72%
18:00 +6°C° 0 mm 4 m/s 733 mmHg 73%
19:00 +5°C° 0 mm 4 m/s 734 mmHg 75%
20:00 +4°C° 0 mm 3 m/s 734 mmHg 77%
21:00 +3°C° 0 mm 3 m/s 734 mmHg 80%
22:00 +2°C° 0 mm 3 m/s 735 mmHg 83%
23:00 +2°C° 0 mm 3 m/s 735 mmHg 85%

Mâine, 9 Mai, Duminică

Timp Temperatura Precipitaţii Vânt Presiune Umiditate
00:00 +1°C° 0 mm 3 m/s 736 mmHg 88%
01:00 +1°C° 0 mm 3 m/s 736 mmHg 90%
02:00 0°C° 0 mm 3 m/s 737 mmHg 92%
03:00 +1°C° 0 mm 3 m/s 737 mmHg 89%
04:00 0°C° 0 mm 4 m/s 738 mmHg 86%
05:00 0°C° 0 mm 4 m/s 739 mmHg 82%
06:00 +1°C° 0 mm 4 m/s 739 mmHg 74%
07:00 +4°C° 0 mm 4 m/s 740 mmHg 66%
08:00 +5°C° 0 mm 4 m/s 740 mmHg 58%
09:00 +6°C° 0 mm 4 m/s 740 mmHg 52%
10:00 +7°C° 0 mm 4 m/s 741 mmHg 46%
11:00 +9°C° 0 mm 5 m/s 741 mmHg 40%
12:00 +9°C° 0 mm 5 m/s 742 mmHg 38%
13:00 +11°C° 0 mm 4 m/s 742 mmHg 36%
14:00 +11°C° 0 mm 4 m/s 742 mmHg 34%
15:00 +11°C° 0 mm 4 m/s 743 mmHg 36%
16:00 +11°C° 0 mm 3 m/s 743 mmHg 39%
17:00 +12°C° 0 mm 2 m/s 744 mmHg 42%
18:00 +9°C° 0 mm 2 m/s 744 mmHg 50%
19:00 +8°C° 0 mm 1 m/s 745 mmHg 58%
20:00 +6°C° 0 mm 1 m/s 745 mmHg 66%
21:00 +6°C° 0 mm 1 m/s 746 mmHg 68%
22:00 +5°C° 0 mm 1 m/s 746 mmHg 70%
23:00 +5°C° 0 mm 1 m/s 746 mmHg 72%

Poimâine, 10 Mai, Luni

Timp Temperatura Precipitaţii Vânt Presiune Umiditate
00:00 +3°C° 0 mm 2 m/s 746 mmHg 73%
01:00 +3°C° 0 mm 2 m/s 747 mmHg 74%
02:00 +3°C° 0 mm 2 m/s 747 mmHg 75%
03:00 +3°C° 0 mm 2 m/s 747 mmHg 74%
04:00 +4°C° 0 mm 2 m/s 747 mmHg 73%
05:00 +3°C° 0 mm 3 m/s 748 mmHg 73%
06:00 +5°C° 0 mm 3 m/s 748 mmHg 68%
07:00 +8°C° 0 mm 3 m/s 748 mmHg 63%
08:00 +8°C° 0 mm 4 m/s 748 mmHg 59%
09:00 +11°C° 0 mm 4 m/s 748 mmHg 55%
10:00 +12°C° 0 mm 4 m/s 748 mmHg 51%
11:00 +14°C° 0 mm 4 m/s 748 mmHg 48%
12:00 +15°C° 0 mm 4 m/s 748 mmHg 47%
13:00 +17°C° 0 mm 4 m/s 748 mmHg 46%
14:00 +18°C° 0 mm 4 m/s 748 mmHg 45%
15:00 +18°C° 0 mm 3 m/s 748 mmHg 48%
16:00 +17°C° 0 mm 3 m/s 748 mmHg 52%
17:00 +17°C° 0 mm 3 m/s 748 mmHg 55%
18:00 +15°C° 0 mm 2 m/s 749 mmHg 63%
19:00 +13°C° 0 mm 2 m/s 749 mmHg 72%
20:00 +10°C° 0 mm 2 m/s 749 mmHg 81%
21:00 +9°C° 0 mm 2 m/s 749 mmHg 83%
22:00 +8°C° 0 mm 2 m/s 750 mmHg 85%
23:00 +8°C° 0 mm 2 m/s 750 mmHg 88%

11 Mai, Marţi

Timp Temperatura Precipitaţii Vânt Presiune Umiditate
00:00 +7°C° 0 mm 2 m/s 750 mmHg 88%
01:00 +7°C° 0 mm 2 m/s 750 mmHg 88%
02:00 +7°C° 0 mm 2 m/s 750 mmHg 89%
03:00 +8°C° 0 mm 1 m/s 750 mmHg 88%
04:00 +8°C° 0 mm 1 m/s 750 mmHg 86%
05:00 +8°C° 0 mm 1 m/s 750 mmHg 85%
06:00 +9°C° 0 mm 2 m/s 750 mmHg 77%
07:00 +12°C° 0 mm 2 m/s 751 mmHg 69%
08:00 +14°C° 0 mm 2 m/s 751 mmHg 60%
09:00 +16°C° 0 mm 2 m/s 751 mmHg 56%
10:00 +17°C° 0 mm 3 m/s 751 mmHg 52%
11:00 +18°C° 0 mm 3 m/s 751 mmHg 48%
12:00 +19°C° 0 mm 3 m/s 750 mmHg 47%
13:00 +19°C° 0 mm 3 m/s 750 mmHg 47%
14:00 +20°C° 0 mm 3 m/s 750 mmHg 46%
15:00 +20°C° 0 mm 3 m/s 750 mmHg 49%
16:00 +19°C° 0 mm 2 m/s 749 mmHg 53%
17:00 +19°C° 0 mm 2 m/s 749 mmHg 56%
18:00 +17°C° 0 mm 2 m/s 749 mmHg 65%
19:00 +15°C° 0 mm 2 m/s 749 mmHg 74%
20:00 +13°C° 0 mm 2 m/s 749 mmHg 83%
21:00 +12°C° 0 mm 2 m/s 749 mmHg 85%
22:00 +10°C° 0 mm 2 m/s 749 mmHg 88%
23:00 +10°C° 0 mm 2 m/s 749 mmHg 90%

12 Mai, Miercuri

Timp Temperatura Precipitaţii Vânt Presiune Umiditate
00:00 +9°C° 0 mm 2 m/s 749 mmHg 91%
01:00 +10°C° 0 mm 1 m/s 749 mmHg 92%
02:00 +9°C° 0 mm 1 m/s 749 mmHg 93%
03:00 +10°C° 0 mm 1 m/s 749 mmHg 91%
04:00 +10°C° 0 mm 1 m/s 749 mmHg 89%
05:00 +10°C° 0 mm 1 m/s 749 mmHg 88%
06:00 +12°C° 0 mm 2 m/s 749 mmHg 79%
07:00 +14°C° 0 mm 2 m/s 749 mmHg 71%
08:00 +16°C° 0 mm 2 m/s 749 mmHg 63%
09:00 +18°C° 0 mm 3 m/s 748 mmHg 58%
10:00 +19°C° 0 mm 4 m/s 748 mmHg 53%
11:00 +20°C° 0 mm 4 m/s 748 mmHg 48%
12:00 +21°C° 0 mm 4 m/s 748 mmHg 46%
13:00 +21°C° 0 mm 4 m/s 747 mmHg 44%
14:00 +21°C° 0 mm 4 m/s 747 mmHg 42%
15:00 +21°C° 0 mm 4 m/s 747 mmHg 46%
16:00 +21°C° 0 mm 3 m/s 747 mmHg 50%
17:00 +20°C° 0 mm 3 m/s 747 mmHg 54%
18:00 +18°C° 0 mm 3 m/s 746 mmHg 62%
19:00 +16°C° 0 mm 2 m/s 746 mmHg 70%
20:00 +14°C° 0 mm 2 m/s 746 mmHg 78%
21:00 +14°C° 0 mm 2 m/s 746 mmHg 81%
22:00 +13°C° 0 mm 2 m/s 746 mmHg 83%
23:00 +13°C° 0 mm 2 m/s 746 mmHg 85%

13 Mai, Joi

Timp Temperatura Precipitaţii Vânt Presiune Umiditate
00:00 +13°C° 0 mm 2 m/s 746 mmHg 83%
01:00 +13°C° 0 mm 2 m/s 746 mmHg 82%
02:00 +13°C° 0 mm 2 m/s 746 mmHg 80%
03:00 +13°C° 0 mm 2 m/s 746 mmHg 80%
04:00 +12°C° 0 mm 3 m/s 746 mmHg 80%
05:00 +12°C° 0 mm 3 m/s 746 mmHg 80%
06:00 +14°C° 0 mm 3 m/s 745 mmHg 73%
07:00 +17°C° 0 mm 4 m/s 745 mmHg 66%
08:00 +18°C° 0 mm 4 m/s 745 mmHg 59%
09:00 +19°C° 0 mm 5 m/s 745 mmHg 56%
10:00 +21°C° 0 mm 5 m/s 744 mmHg 53%
11:00 +22°C° 0 mm 5 m/s 744 mmHg 49%
12:00 +22°C° 0.1 mm 5 m/s 744 mmHg 52%
13:00 +21°C° 0.1 mm 5 m/s 743 mmHg 54%
14:00 +21°C° 0.1 mm 5 m/s 743 mmHg 56%
15:00 +21°C° 0.2 mm 5 m/s 742 mmHg 59%
16:00 +20°C° 0.2 mm 5 m/s 742 mmHg 61%
17:00 +20°C° 0.2 mm 5 m/s 741 mmHg 64%
18:00 +19°C° 0.4 mm 5 m/s 741 mmHg 70%
19:00 +17°C° 0.4 mm 5 m/s 741 mmHg 76%
20:00 +16°C° 0.4 mm 5 m/s 741 mmHg 82%
21:00 +15°C° 0 mm 5 m/s 741 mmHg 85%
22:00 +14°C° 0 mm 4 m/s 741 mmHg 89%
23:00 +14°C° 0 mm 3 m/s 741 mmHg 92%
Arată mai mult

Formular de consimțământ

Meteoprog și furnizorii noștri de servicii pot stoca și accesa date personale, precum cookies, identificatori de dispozitiv sau alte tehnologii similare pe dispozitivul dumneavoastră și procesa astfel de date pentru a personaliza conținutul și reclamele, dar și pentru a oferi caracteristici de social media și pentru a analiza traficul.

  • Stocarea și/sau accesarea informațiilor pe dispozitivul dumneavoastră

    Cookies, identificatori de dispozitiv sau alte informații pot fi stocate sau accesate pe dispozitiv în scopurile indicate mai sus.

  • Reclame și conținut personalizat, evaluarea reclamelor și a conținutului, informații despre audiențe și dezvoltarea produselor

    Reclamele și conținutul pot fi personalizate pe baza unui profil. Pot fi adăugate date suplimentare pentru a personaliza mai bine reclamele și conținutul. Performanța reclamelor și conținutului poate fi măsurată. Pot fi obținute informații despre utilizatorii care au văzut reclamele și conținutul. Aceste date pot fi utilizate pentru a dezvolta sau îmbunătăți experiența utilizatorilor, sistemele și software-ul.

Dând clic pe ‘Sunt de acord’, permiteți utilizarea cookie-urilor menționate, a identificatorilor de dispozitiv, balizelor web sau altor tehnologii similare. Setările pot fi modificate din browser-ul dispozitivului dumneavoastră.

În anumite scopuri, interesele legitime pot prima asupra consimțământului. Puteți citi mai multe informații în acest sens în Politica privind Confidențialitatea Datelor și Cookie.